�S���n�������c�̃R�[�h,�s���{����,���\��,0��,1�`4��,5�`9��,10�`19��,20�`29��,30�`39��,40�`49��,50�`59��,60�`64��,65�`69��,70�`79��,80�`89��,90�Έȏ�,�s��,���v
330001,���R��,2022/9/27,3,47,71,101,60,76,84,47,17,7,28,14,6,0,561
330001,���R��,2022/9/28,7,33,74,156,117,104,127,73,22,15,41,22,9,0,800
330001,���R��,2022/9/29,6,37,54,117,99,111,100,50,32,13,28,20,9,0,676
330001,���R��,2022/9/30,3,25,31,104,84,96,93,68,29,15,27,23,5,0,603
330001,���R��,2022/10/1,6,35,40,88,59,93,74,53,18,18,23,19,3,0,529
330001,���R��,2022/10/2,8,23,67,87,70,77,62,39,18,13,17,7,3,0,491
330001,���R��,2022/10/3,3,22,29,55,23,31,35,31,7,4,11,7,7,0,265
330001,���R��,2022/10/4,5,41,71,146,96,76,85,40,22,13,20,20,7,0,642
330001,���R��,2022/10/5,4,44,64,153,94,110,78,71,21,14,31,16,7,0,707
330001,���R��,2022/10/6,4,34,68,134,87,87,88,59,18,11,22,15,5,0,632
330001,���R��,2022/10/7,3,27,52,109,61,84,73,34,9,7,24,18,4,0,505
330001,���R��,2022/10/8,3,33,58,96,62,83,69,41,23,13,21,13,8,0,523
330001,���R��,2022/10/9,5,28,70,77,37,47,61,35,16,9,10,10,5,0,410
330001,���R��,2022/10/10,5,16,37,53,34,49,49,27,13,7,7,9,0,0,306
330001,���R��,2022/10/11,3,11,30,34,16,28,34,13,6,1,5,3,1,0,185
330001,���R��,2022/10/12,7,50,127,183,57,141,135,59,29,16,42,23,11,0,880
330001,���R��,2022/10/13,13,69,118,162,110,145,149,82,33,25,30,16,8,0,960
330001,���R��,2022/10/14,6,43,85,111,75,130,120,62,27,19,21,12,7,0,718
330001,���R��,2022/10/15,6,39,77,123,80,107,133,65,26,17,35,9,6,0,723
330001,���R��,2022/10/16,5,34,69,109,56,106,78,53,10,19,28,12,2,0,581
330001,���R��,2022/10/17,2,18,35,54,49,52,53,24,9,4,19,3,5,0,327
330001,���R��,2022/10/18,8,32,88,124,89,121,110,76,22,17,35,20,9,0,751
330001,���R��,2022/10/19,10,36,89,161,94,124,142,89,25,20,38,12,5,0,845
330001,���R��,2022/10/20,2,29,65,87,93,94,90,60,31,12,26,16,6,0,611
330001,���R��,2022/10/21,5,28,55,103,70,94,105,46,27,15,23,22,6,0,599
330001,���R��,2022/10/22,2,27,52,101,71,70,91,47,19,14,23,20,3,0,540
330001,���R��,2022/10/23,5,36,50,127,68,74,90,60,21,12,27,12,9,0,591
330001,���R��,2022/10/24,3,13,37,61,34,54,49,37,15,7,14,5,2,0,331
330001,���R��,2022/10/25,3,29,77,157,94,94,104,77,24,17,30,31,10,0,747
330001,���R��,2022/10/26,6,30,68,167,105,110,160,95,43,18,26,12,3,0,843
330001,���R��,2022/10/27,6,25,59,125,85,120,98,68,28,15,29,12,9,0,679
330001,���R��,2022/10/28,6,22,52,99,76,96,109,68,28,15,25,11,8,0,615
330001,���R��,2022/10/29,1,31,52,118,87,88,89,44,20,13,17,19,3,0,582
330001,���R��,2022/10/30,2,33,71,119,76,79,88,39,27,9,21,24,8,0,596
330001,���R��,2022/10/31,1,8,28,59,48,38,43,33,9,4,10,13,6,0,300
330001,���R��,2022/11/1,8,49,72,155,107,119,130,72,35,15,29,21,6,0,818
330001,���R��,2022/11/2,5,41,77,169,121,141,123,103,39,18,55,19,13,0,924
330001,���R��,2022/11/3,7,39,75,192,120,145,133,83,31,32,47,37,17,0,958
330001,���R��,2022/11/4,7,12,48,98,63,87,90,55,25,15,28,17,7,0,552
330001,���R��,2022/11/5,6,25,60,192,138,130,143,97,27,19,56,32,22,0,947
330001,���R��,2022/11/6,3,50,101,184,140,123,129,95,64,20,49,36,30,0,1024
330001,���R��,2022/11/7,4,10,36,112,82,76,76,58,18,20,21,19,11,0,543
330001,���R��,2022/11/8,10,35,89,203,151,161,167,110,52,24,67,41,25,0,1135
330001,���R��,2022/11/9,14,45,91,218,185,175,180,128,50,28,72,53,27,0,1266
330001,���R��,2022/11/10,8,42,80,203,193,179,181,111,47,18,70,48,26,0,1206
330001,���R��,2022/11/11,7,44,81,203,172,172,183,114,55,24,50,48,17,0,1170
330001,���R��,2022/11/12,9,52,84,198,185,160,170,129,55,15,67,44,23,0,1191
330001,���R��,2022/11/13,8,46,86,200,150,120,160,108,41,27,46,47,17,0,1056
330001,���R��,2022/11/14,7,18,40,106,68,61,83,57,19,15,23,20,9,0,526
330001,���R��,2022/11/15,11,49,134,235,191,195,208,149,51,29,73,61,37,0,1423
330001,���R��,2022/11/16,11,73,148,325,228,206,272,156,62,48,75,52,28,0,1684
330001,���R��,2022/11/17,12,45,94,263,187,181,186,139,64,49,64,53,20,0,1357
330001,���R��,2022/11/18,14,47,89,215,166,206,216,149,48,30,70,65,26,0,1341
330001,���R��,2022/11/19,8,46,112,226,187,161,218,129,76,31,85,52,34,0,1365
330001,���R��,2022/11/20,9,57,118,212,144,157,213,114,42,27,67,55,25,0,1240
330001,���R��,2022/11/21,3,22,47,129,94,105,101,59,30,20,30,22,10,0,672
330001,���R��,2022/11/22,22,104,156,328,234,256,257,208,82,41,83,58,30,0,1859
330001,���R��,2022/11/23,12,123,176,378,258,296,328,202,98,59,115,77,34,0,2156
330001,���R��,2022/11/24,4,54,93,189,129,167,175,117,37,24,51,47,13,0,1100
330001,���R��,2022/11/25,10,62,128,270,223,269,268,196,74,44,97,60,25,0,1726
330001,���R��,2022/11/26,11,93,142,311,219,319,314,199,66,60,93,91,55,0,1973
330001,���R��,2022/11/27,18,81,136,280,193,233,237,152,69,42,94,65,22,0,1622
330001,���R��,2022/11/28,7,44,72,130,97,128,141,81,50,18,60,26,16,0,870
330001,���R��,2022/11/29,13,64,145,312,250,241,281,177,86,59,116,84,36,0,1864
330001,���R��,2022/11/30,17,85,172,291,269,309,298,238,102,60,103,73,43,0,2060
330001,���R��,2022/12/1,10,51,118,272,239,278,273,196,72,52,105,73,41,0,1780
330001,���R��,2022/12/2,16,53,153,214,233,270,231,172,62,34,83,68,39,0,1628
330001,���R��,2022/12/3,13,60,148,235,205,211,227,173,78,38,94,69,38,0,1589
330001,���R��,2022/12/4,6,51,127,192,145,204,216,160,57,37,70,58,19,0,1342
330001,���R��,2022/12/5,2,25,68,126,82,117,136,115,29,26,38,27,20,0,811
330001,���R��,2022/12/6,21,90,252,349,253,269,344,195,69,53,95,82,52,0,2124
330001,���R��,2022/12/7,21,119,253,411,296,304,401,261,106,58,115,108,76,0,2529
330001,���R��,2022/12/8,17,86,176,281,286,317,354,235,75,67,93,93,63,0,2143
330001,���R��,2022/12/9,19,86,156,281,258,314,353,226,75,48,112,86,40,0,2054
330001,���R��,2022/12/10,18,87,178,292,254,302,312,227,85,58,126,86,48,0,2073
330001,���R��,2022/12/11,11,100,192,305,217,301,316,212,101,55,111,84,36,0,2041
330001,���R��,2022/12/12,7,44,89,189,122,143,179,109,52,25,41,28,8,0,1036
330001,���R��,2022/12/13,20,108,225,399,318,387,414,311,104,70,139,108,62,0,2665
330001,���R��,2022/12/14,18,151,287,504,385,409,475,347,109,76,161,124,55,0,3101
330001,���R��,2022/12/15,18,116,217,517,403,458,492,357,114,67,170,102,56,0,3087
330001,���R��,2022/12/16,17,102,177,378,349,371,386,239,88,68,115,80,49,0,2419
330001,���R��,2022/12/17,13,100,191,417,332,351,413,317,131,76,123,123,55,0,2642
330001,���R��,2022/12/18,16,87,196,404,281,310,336,283,101,68,112,92,52,0,2338
330001,���R��,2022/12/19,11,55,124,230,168,201,222,166,57,41,65,55,25,0,1420
330001,���R��,2022/12/20,17,133,215,512,398,460,477,356,117,72,129,103,72,0,3061
330001,���R��,2022/12/21,22,139,268,565,475,524,561,382,158,81,169,143,64,0,3551
330001,���R��,2022/12/22,28,118,261,524,464,494,598,362,149,97,140,129,83,0,3447
330001,���R��,2022/12/23,31,122,236,466,473,477,504,390,161,79,152,161,90,0,3342
330001,���R��,2022/12/24,27,112,239,522,423,431,515,381,144,72,160,127,85,0,3238
330001,���R��,2022/12/25,22,103,201,493,355,367,426,293,114,85,134,90,36,0,2719
330001,���R��,2022/12/26,12,55,138,300,250,233,272,190,66,40,88,64,25,0,1733
330001,���R��,2022/12/27,22,121,259,514,441,442,522,390,152,107,172,151,105,0,3398
330001,���R��,2022/12/28,40,149,247,546,504,544,591,442,145,103,203,156,76,0,3746
330001,���R��,2022/12/29,34,145,252,531,531,539,623,445,181,127,198,162,68,0,3836
330001,���R��,2022/12/30,37,108,181,410,469,469,494,322,151,78,156,158,51,0,3084
330001,���R��,2022/12/31,18,44,97,303,299,290,360,246,85,53,116,87,39,0,2037
330001,���R��,2023/1/1,13,70,79,241,273,265,237,223,88,63,94,77,44,0,1767
330001,���R��,2023/1/2,8,44,61,142,213,249,214,172,59,35,66,51,42,0,1356
330001,���R��,2023/1/3,13,44,47,121,294,226,247,174,63,39,75,56,30,0,1429
330001,���R��,2023/1/4,23,45,66,167,417,318,320,234,66,47,64,49,32,0,1848
330001,���R��,2023/1/5,45,164,193,473,933,651,677,554,208,137,271,191,101,0,4598
330001,���R��,2023/1/6,67,197,178,531,1024,768,851,694,265,175,298,186,89,0,5323
330001,���R��,2023/1/7,48,161,182,560,1061,780,818,681,260,158,301,246,76,0,5332
330001,���R��,2023/1/8,46,139,157,419,752,567,529,509,240,132,260,175,90,0,4015
330001,���R��,2023/1/9,18,79,62,209,357,302,309,301,102,61,124,90,44,0,2058
330001,���R��,2023/1/10,12,49,54,155,269,242,278,201,71,34,86,59,26,0,1536
330001,���R��,2023/1/11,44,157,197,384,639,525,541,526,200,111,252,178,94,0,3848
330001,���R��,2023/1/12,44,213,188,454,646,500,557,505,203,128,260,187,89,0,3974
330001,���R��,2023/1/13,21,116,150,348,556,398,420,391,149,89,204,153,94,0,3089
330001,���R��,2023/1/14,27,124,137,310,438,314,349,289,113,78,161,129,61,0,2530
330001,���R��,2023/1/15,20,132,135,274,314,295,307,276,98,74,167,131,52,0,2275
330001,���R��,2023/1/16,10,55,79,185,170,190,184,160,64,39,75,44,24,0,1279
330001,���R��,2023/1/17,16,154,206,300,276,317,375,289,103,64,160,143,67,0,2470
330001,���R��,2023/1/18,28,172,181,319,309,336,339,296,132,65,184,123,57,0,2541
330001,���R��,2023/1/19,24,126,145,249,214,317,308,210,90,79,148,90,45,0,2045
330001,���R��,2023/1/20,22,117,143,215,211,271,276,213,83,54,130,79,35,0,1849
330001,���R��,2023/1/21,10,122,121,180,158,242,223,177,74,53,82,64,19,0,1525
330001,���R��,2023/1/22,20,97,105,141,121,212,171,133,62,36,88,65,33,0,1284
330001,���R��,2023/1/23,15,70,62,86,80,124,106,86,26,24,46,41,23,0,789
330001,���R��,2023/1/24,16,94,131,172,135,217,218,154,54,46,83,79,34,0,1433
330001,���R��,2023/1/25,17,143,159,196,172,244,246,189,76,59,97,81,40,0,1719
330001,���R��,2023/1/26,13,81,114,128,131,158,180,113,41,29,65,54,26,0,1133
330001,���R��,2023/1/27,12,79,100,140,127,176,167,114,49,27,70,54,26,0,1141
330001,���R��,2023/1/28,7,79,93,103,106,136,150,99,35,44,61,60,17,0,990
330001,���R��,2023/1/29,11,63,92,120,80,141,130,81,43,30,56,32,25,0,904
330001,���R��,2023/1/30,7,42,46,62,43,79,74,51,26,10,27,14,12,0,493
330001,���R��,2023/1/31,16,68,97,120,96,156,130,91,52,34,55,56,33,0,1004
330001,���R��,2023/2/1,7,71,109,129,108,163,175,97,42,34,62,57,21,0,1075
330001,���R��,2023/2/2,7,67,86,126,115,139,145,101,32,23,71,43,24,0,979
330001,���R��,2023/2/3,12,48,65,113,87,137,142,100,25,30,43,38,13,0,853
330001,���R��,2023/2/4,10,57,68,95,77,90,113,82,27,34,58,36,31,0,778
330001,���R��,2023/2/5,5,51,79,94,61,111,105,56,26,16,45,30,20,0,699
330001,���R��,2023/2/6,3,21,35,50,35,55,73,47,14,9,13,26,12,0,393
330001,���R��,2023/2/7,5,55,73,91,75,119,138,100,31,15,61,47,24,0,834
330001,���R��,2023/2/8,9,47,71,103,92,112,129,90,43,21,50,26,10,0,803
330001,���R��,2023/2/9,4,45,48,71,68,84,97,68,28,24,41,29,26,0,633
330001,���R��,2023/2/10,2,30,49,61,49,86,82,50,18,14,26,24,20,0,511
330001,���R��,2023/2/11,6,35,60,85,49,89,90,52,26,19,40,21,15,0,587
330001,���R��,2023/2/12,4,15,35,46,29,52,49,41,14,8,12,14,16,0,335
330001,���R��,2023/2/13,0,12,20,28,23,25,24,23,9,10,3,11,3,0,191
330001,���R��,2023/2/14,5,30,51,74,54,76,91,58,28,33,34,30,26,0,590
330001,���R��,2023/2/15,11,31,50,98,54,73,90,49,22,24,42,21,8,0,573
330001,���R��,2023/2/16,1,26,34,47,39,42,55,38,12,20,28,25,15,0,382
330001,���R��,2023/2/17,3,18,38,57,44,70,56,43,10,19,20,20,16,0,414
330001,���R��,2023/2/18,6,27,23,36,36,34,66,37,14,12,18,21,13,0,343
330001,���R��,2023/2/19,1,16,22,40,39,42,50,27,15,8,14,9,12,0,295
330001,���R��,2023/2/20,2,5,9,30,13,35,19,21,6,2,12,7,3,0,164
330001,���R��,2023/2/21,2,16,35,42,40,40,49,43,12,12,31,17,14,0,353
330001,���R��,2023/2/22,4,16,38,30,37,38,56,36,13,9,8,22,11,0,318
330001,���R��,2023/2/23,1,17,25,32,37,39,47,30,7,11,16,24,6,0,292
330001,���R��,2023/2/24,1,2,15,13,16,22,11,14,7,3,12,4,4,0,124
330001,���R��,2023/2/25,2,13,14,15,28,33,40,17,5,10,20,8,6,0,211
330001,���R��,2023/2/26,1,9,14,26,30,42,44,28,12,6,17,9,1,0,239
330001,���R��,2023/2/27,0,11,9,7,16,17,24,6,7,5,6,7,3,0,118
330001,���R��,2023/2/28,2,12,15,29,25,33,25,26,9,9,17,11,10,0,223
330001,���R��,2023/3/1,2,11,18,22,29,32,29,18,13,9,17,9,4,0,213
330001,���R��,2023/3/2,0,13,12,19,15,14,28,13,5,9,14,11,2,0,155
330001,���R��,2023/3/3,0,5,6,14,16,32,22,17,8,3,14,9,7,0,153
330001,���R��,2023/3/4,0,5,6,19,21,14,19,17,4,10,19,6,4,0,144
330001,���R��,2023/3/5,0,5,3,17,16,17,20,7,7,4,7,8,9,0,120
330001,���R��,2023/3/6,1,2,3,11,10,12,9,8,2,4,6,4,4,0,76
330001,���R��,2023/3/7,2,4,5,22,11,17,30,21,4,5,9,7,4,0,141
330001,���R��,2023/3/8,2,9,10,20,27,22,17,32,11,12,13,12,10,0,197
330001,���R��,2023/3/9,1,16,6,28,23,15,25,26,9,4,9,7,4,0,173
330001,���R��,2023/3/10,1,8,8,14,12,17,13,11,5,6,10,20,23,0,148
330001,���R��,2023/3/11,0,5,4,17,11,11,14,14,6,9,14,10,6,0,121
330001,���R��,2023/3/12,1,2,9,14,10,13,16,16,1,3,10,3,5,0,103
330001,���R��,2023/3/13,2,3,4,10,4,6,12,3,2,0,1,0,1,0,48
330001,���R��,2023/3/14,3,4,7,20,18,15,12,17,2,3,5,10,1,0,117
330001,���R��,2023/3/15,0,8,7,6,11,17,19,15,8,2,9,10,6,0,118
330001,���R��,2023/3/16,0,3,5,12,12,5,21,14,5,4,6,6,1,0,94
330001,���R��,2023/3/17,0,3,7,14,18,11,13,5,1,4,6,8,1,0,91
330001,���R��,2023/3/18,3,9,4,19,16,13,12,14,6,2,6,5,3,0,112
330001,���R��,2023/3/19,1,4,2,6,7,7,8,10,9,2,11,7,8,0,82
330001,���R��,2023/3/20,1,2,3,4,6,4,8,3,0,1,3,1,2,0,38
330001,���R��,2023/3/21,0,6,8,20,17,25,17,10,7,4,6,4,1,0,125
330001,���R��,2023/3/22,1,2,2,5,5,5,10,7,3,3,2,5,1,0,51
330001,���R��,2023/3/23,0,2,4,8,18,16,22,10,5,6,7,1,0,0,99
330001,���R��,2023/3/24,0,3,4,8,14,11,14,15,10,6,17,4,4,0,110
330001,���R��,2023/3/25,0,1,9,21,11,30,20,15,6,6,4,7,2,0,132
330001,���R��,2023/3/26,1,8,3,8,13,10,10,11,2,6,8,7,2,0,89
330001,���R��,2023/3/27,0,1,1,6,7,5,11,5,1,0,2,2,1,0,42
330001,���R��,2023/3/28,0,4,1,8,10,16,17,11,3,6,9,3,2,0,90
330001,���R��,2023/3/29,0,1,4,11,17,10,15,13,4,4,11,6,1,0,97
330001,���R��,2023/3/30,0,2,4,15,14,10,12,15,1,3,8,4,1,0,89
330001,���R��,2023/3/31,1,0,1,12,11,14,12,10,2,4,11,8,2,0,88
330001,���R��,2023/4/1,0,2,1,11,8,14,7,6,1,3,5,1,4,0,63
330001,���R��,2023/4/2,0,0,2,3,10,12,6,14,1,7,9,6,2,0,72
330001,���R��,2023/4/3,0,1,0,6,11,5,3,5,3,1,2,2,3,0,42
330001,���R��,2023/4/4,1,6,5,3,15,15,24,9,7,6,8,2,1,0,102
330001,���R��,2023/4/5,2,1,6,10,18,16,14,21,8,6,9,5,2,0,118
330001,���R��,2023/4/6,0,1,0,17,21,14,15,11,9,3,4,4,0,0,99
330001,���R��,2023/4/7,0,3,6,13,13,14,14,8,4,4,12,3,0,0,94
330001,���R��,2023/4/8,1,0,1,7,13,11,16,9,9,3,5,1,2,0,78
330001,���R��,2023/4/9,2,1,2,8,5,5,13,8,12,2,9,3,1,0,71
330001,���R��,2023/4/10,0,1,1,8,9,8,5,4,1,1,0,1,0,0,39
330001,���R��,2023/4/11,0,0,4,10,7,10,13,10,5,2,3,2,0,0,66
330001,���R��,2023/4/12,0,1,1,16,4,5,15,13,4,7,8,4,0,0,78
330001,���R��,2023/4/13,1,4,5,6,7,18,9,13,4,3,7,5,2,0,84
330001,���R��,2023/4/14,0,1,2,10,9,12,7,14,3,2,8,6,8,0,82
330001,���R��,2023/4/15,1,1,11,8,10,15,10,9,6,1,9,3,3,0,87
330001,���R��,2023/4/16,0,0,2,12,6,14,13,8,2,8,9,2,3,0,79
330001,���R��,2023/4/17,1,1,3,6,3,4,2,6,0,4,6,0,1,0,37
330001,���R��,2023/4/18,0,3,8,10,12,12,16,12,7,9,12,10,4,0,115
330001,���R��,2023/4/19,0,4,6,22,15,13,19,20,6,3,12,6,6,0,132
330001,���R��,2023/4/20,0,3,6,12,17,15,8,14,3,1,10,3,1,0,93
330001,���R��,2023/4/21,0,1,2,12,29,11,14,8,7,2,10,6,4,0,106
330001,���R��,2023/4/22,0,4,6,15,10,12,7,12,5,4,7,4,1,0,87
330001,���R��,2023/4/23,0,1,4,11,13,11,10,6,11,7,5,6,2,0,87
330001,���R��,2023/4/24,1,1,1,3,4,6,5,9,1,0,1,4,1,0,37
330001,���R��,2023/4/25,0,3,4,10,10,10,9,9,6,4,9,5,1,0,80
330001,���R��,2023/4/26,1,6,2,20,16,14,23,27,5,4,5,7,2,0,132
330001,���R��,2023/4/27,1,4,5,14,12,18,20,13,5,0,10,0,2,0,104
330001,���R��,2023/4/28,1,1,6,23,12,14,12,9,2,7,2,4,1,0,94
330001,���R��,2023/4/29,1,4,6,18,10,13,16,18,2,6,4,10,0,0,108
330001,���R��,2023/4/30,0,2,2,9,9,11,7,5,2,2,4,6,3,0,62
330001,���R��,2023/5/1,0,1,2,5,4,3,2,5,2,0,1,2,1,0,28
330001,���R��,2023/5/2,1,1,6,16,14,13,24,19,6,9,9,6,0,0,124
330001,���R��,2023/5/3,0,4,3,21,17,15,25,25,8,6,15,6,2,0,147
330001,���R��,2023/5/4,2,1,2,10,12,7,13,9,0,2,9,2,0,0,69
330001,���R��,2023/5/5,0,1,1,6,6,10,4,9,4,4,3,0,0,0,48
330001,���R��,2023/5/6,0,0,1,10,5,8,11,13,1,2,3,2,0,0,56
330001,���R��,2023/5/7,1,0,4,17,13,14,18,20,8,5,14,6,2,0,122
330001,���R��,2023/5/8,1,5,7,21,21,18,32,30,7,12,8,7,4,0,173
